Home   Weather   Yorkton   Past weeks
Flag for Canada

Past Weather in Yorkton, Saskatchewan, Canada — Yesterday and Last 2 Weeks

Now
27 °F

Clear.


Feels Like: 27 °F
Forecast: 46 / 24 °F
Wind: 2 mph from North

Location: Yorkton

Current Time: Mar 20, 2019 at 5:38:52 am

Latest Report: Mar 20, 2019 at 5:00 am


Visibility: 9 mi

Pressure: 30.18 "Hg (28.31 "Hg at 505m altitude)

Humidity: 93%

Dew Point: 25 °F

Location of YorktonLocation

Past Weather in Yorkton — Graph

°F

Yorkton Temperature Yesterday

Maximum temperature yesterday: 45 °F (at 2:00 pm)
Minimum temperature yesterday: 27 °F (at 3:00 am)
Average temperature yesterday: 35 °F

High & Low Weather Summary for the Past Weeks

 TemperatureHumidityPressure
High45 °F (Mar 19, 2:00 pm)100% (Mar 16, 6:28 am)30.46 "Hg (Mar 16, 6:28 am)
Low-15 °F (Mar 7, 5:00 am)55% (Mar 11, 3:00 pm)29.49 "Hg (Mar 12, 2:00 pm)
Average20 °F74%30.09 "Hg
* Reported Mar 5 4:00 am — Mar 20 4:00 am, Yorkton. Weather by CustomWeather, © 2019

Note: Actual official high and low records may vary slightly from our data, if they occured in-between our weather recording intervals... More about our weather records

Advertising

Yorkton Weather History for the Previous 24 Hours

Scroll right to see more
 ConditionsComfort  
Time TempWeatherWind HumidityBarometerVisibility
4:00 am
Wed, Mar 20
30 °FPassing clouds.2 mph86%30.15 "Hg9 mi
3:00 am32 °FClear.7 mph80%30.13 "Hg9 mi
2:00 am34 °FPassing clouds.10 mph81%30.12 "Hg9 mi
1:00 am34 °FPassing clouds.9 mph81%30.11 "Hg9 mi
12:00 am36 °FPassing clouds.13 mph81%30.10 "Hg9 mi
11:00 pm
Tue, Mar 19
36 °FPassing clouds.15 mph81%30.07 "Hg9 mi
10:00 pm36 °FPassing clouds.10 mph81%30.06 "Hg9 mi
9:00 pm36 °FClear.8 mph81%30.06 "Hg9 mi
8:00 pm37 °FClear.13 mph75%30.03 "Hg9 mi
7:00 pm37 °FSunny.16 mph75%30.02 "Hg9 mi
6:00 pm39 °FSunny.15 mph70%30.02 "Hg9 mi
5:00 pm43 °FSunny.15 mph66%30.01 "Hg9 mi
4:00 pm43 °FSunny.15 mph66%30.00 "Hg9 mi
3:00 pm45 °FSunny.16 mph61%30.01 "Hg9 mi
2:00 pm45 °FSunny.16 mph61%30.00 "Hg9 mi
1:00 pm41 °FSunny.15 mph66%30.02 "Hg9 mi
12:00 pm41 °FSunny.18 mph66%30.03 "Hg9 mi
11:00 am37 °FPassing clouds.15 mph70%30.06 "Hg9 mi
10:00 am37 °FPartly sunny.16 mph65%30.09 "Hg9 mi
9:00 am32 °FScattered clouds.14 mph75%30.13 "Hg9 mi
8:00 am28 °FPassing clouds.14 mph86%30.15 "Hg9 mi
7:00 am28 °FPassing clouds.10 mph80%30.16 "Hg9 mi
6:00 am27 °FPassing clouds.10 mph80%30.18 "Hg9 mi
5:00 am27 °FPassing clouds.8 mph80%30.19 "Hg9 mi
Weather by CustomWeather, © 2019

See weather overview